Location: Ellerstadt
(49.4644°N, 8.2615°E)
Time: 15:19:25
(UTC+00:00)

IRIDIUM 100 - Pass Details

Date: 01 October 2021
Orbit: 776 x 779 km, 86.4° (Epoch: 20 October)

Event Time Altitude Azimuth Distance (km) Brightness Sun altitude
Exits shadow 00:49:22 17° 1° (N) 1,886 ? -39.7°
Drops below altitude 10° 00:50:33 10° 2° (N) 2,342 ? -39.6°
Sets 00:52:55 0° 4° (N) 3,274 ? -39.4°
